Location: Bijele Vode
(45.2833°N, 16.2000°E)
Time: 13:54:06
(UTC+00:00)

H-2A R/B - Pass Details

Date: 18 September 2020
Orbit: 734 x 836 km, 98.2° (Epoch: 30 October)

Event Time Altitude Azimuth Distance (km) Brightness Sun altitude
Rises 19:13:23 0° 206° (SSW) 3,158 5.2 -23.3°
Reaches altitude 10° 19:16:17 10° 224° (SW) 2,250 4.6 -23.8°
Maximum altitude 19:19:45 19° 269° (W) 1,729 4.5 -24.3°
Drops below altitude 10° 19:23:19 10° 315° (NW) 2,295 5.5 -24.9°
Sets 19:26:19 0° 333° (NNW) 3,245 6.2 -25.3°
